Location: Unspecified
(51.5085°N, 0.0000°E)
Time: 19:52:29
(UTC+00:00)

NNS O-8 - Visible Passes

Search period start: 04 April 2026 00:00
Search period end: 14 April 2026 00:00
Orbit: 874 x 1086 km, 89.6° (Epoch: 29 March)

Date Brightness Start Highest point End Pass type
(mag) Time Alt. Az. Time Alt. Az. Time Alt. Az.
4 Apr 8.2 03:49:59 10° NNE 03:55:51 30° ENE 04:01:31 10° SE visible
4 Apr 9.3 19:13:08 10° WSW 19:17:10 17° WNW 19:21:17 10° NNW visible
5 Apr 7.4 04:16:20 10° N 04:22:49 47° E 04:29:02 10° SSE visible
5 Apr 9.7 19:44:13 10° WNW 19:44:35 10° WNW 19:44:57 10° NW visible
6 Apr 8.9 02:59:43 10° NNE 03:03:43 16° ENE 03:07:38 10° ESE visible
6 Apr 6.6 04:42:52 10° N 04:49:38 73° E 04:56:05 10° S visible
7 Apr 8.4 03:25:32 10° NNE 03:30:57 25° ENE 03:36:11 10° SE visible
8 Apr 7.7 03:51:46 10° NNE 03:58:00 39° E 04:03:57 10° SSE visible
8 Apr 9.6 19:16:46 10° W 19:19:32 13° WNW 19:22:18 10° NW visible
9 Apr 9.0 02:35:43 10° NE 02:38:42 13° ENE 02:41:38 10° E visible
9 Apr 6.8 04:18:13 10° N 04:24:52 61° E 04:31:10 10° SSE visible
10 Apr 8.6 03:01:09 10° NNE 03:06:00 21° ENE 03:10:42 10° ESE visible
11 Apr 8.0 03:27:14 10° NNE 03:33:07 32° ENE 03:38:44 10° SE visible
12 Apr 9.2 02:12:34 10° NE 02:13:38 10° ENE 02:14:42 10° ENE visible
12 Apr 7.1 03:53:37 10° N 04:00:03 50° E 04:06:10 10° SSE visible
13 Apr 8.7 02:36:52 10° NNE 02:41:01 17° ENE 02:45:02 10° ESE visible
13 Apr 6.3 04:20:10 10° N 04:26:50 79° E 04:33:06 10° S visible
